Regional Weather Roundup
Issued by NWS State College, PA

Home | Current Version | Previous Version | Graphics & Text | Print | Product List | Glossary On
Versions: 1 2 3 4 5 6 7 8 9 10 11 12 13 14 15 16 17 18 19 20 21 22 23 24 25 26 27 28 29 30 31 32 33 34 35 36 37 38 39 40 41 42 43 44 45 46 47 48 49 50
000
ASUS41 KCTP 050203
RWRCTP

REGIONAL WEATHER ROUNDUP
NATIONAL WEATHER SERVICE STATE COLLEGE PA
1000 PM EDT FRI SEP 04 2015

Note: "fair" indicates few or no clouds below 12,000 feet with no
significant weather and/or obstructions to visibility.

* = STATION THAT DOES NOT REPORT PRECIPITATION /E.G. RAIN...SNOW...ETC/
    THUNDER OR FOG.

PAZ002>004-007>009-013>016-020>023-029>032-050300-
WESTERN PENNSYLVANIA

CITY           SKY/WX    TMP DP  RH WIND       PRES   REMARKS
ERIE           MOCLDY    74  61  63 SE13G23   30.11R
MEADVILLE      LGT RAIN  70  61  73 CALM      30.14F
FRANKLIN*      MOCLDY    66  64  94 E5        30.18F
NEW CASTLE     FAIR      71  69  93 CALM      30.13S
BEAVER COUNTY  NOT AVBL
BUTLER*        MOCLDY    70  64  83 NE9       30.15F
PITTSBURGH INT MOCLDY    78  63  59 CALM      30.12F
PITTSBURGH     MOCLDY    74  62  66 N5        30.12S
INDIANA*       CLOUDY    68  66  94 NE3       30.19R
LATROBE        CLEAR     72  66  83 CALM      30.14R
WASHINGTON CO* FAIR      68  63  83 CALM      30.13F
$$

PAZ004>006-010>012-017>019-024>028-033>037-041-042-045-046-049>053-050300-
CENTRAL PENNSYLVANIA

CITY           SKY/WX    TMP DP  RH WIND       PRES   REMARKS
BRADFORD       MOCLDY    66  62  87 SE3       30.21R
DUBOIS         PTCLDY    71  67  87 NE3       30.18R FOG
CLEARFIELD     PTCLDY    71  65  81 NW3       30.17R
JOHNSTOWN      MOCLDY    68  60  75 E3        30.20R
ALTOONA        MOCLDY    72  68  87 CALM      30.17R
STATE COLLEGE  NOT AVBL
WILLIAMSPORT   CLOUDY    72  69  90 E5        30.15R
SELINSGROVE    CLOUDY    74  72  93 CALM      30.16R FOG
FT INDIANTOWN  PTCLDY    74  67  80 NE2       30.17R
CAPITAL CITY   MOCLDY    79  68  69 SE12      30.15R
HARRISBURG     MOCLDY    78  70  76 SE12      30.14R
YORK           MOCLDY    74  69  85 SE6       30.15R
$$

PAZ038>040-043-044-047-048-054-055-060>062-067>071-050300-
EASTERN PENNSYLVANIA

CITY           SKY/WX    TMP DP  RH WIND       PRES   REMARKS
SCRANTON       CLEAR     74  67  78 VRB5      30.19R
MOUNT POCONO   PTCLDY    68  65  90 SE6       30.24R
ALLENTOWN      MOCLDY    75  67  76 E8        30.18R
QUAKERTOWN*    MOCLDY    73  66  78 SE6       30.20R
READING        PTCLDY    76  67  73 SE7       30.16R
LANCASTER      MOCLDY    73  68  84 E6        30.16R
COATESVILLE    PTCLDY    73  68  83 E9        30.18R
POTTSTOWN      CLEAR     73  66  78 VRB5      30.19R
BLUE BELL      CLEAR     72  66  83 E6        30.17R
DOYLESTOWN     CLEAR     70  63  78 CALM      30.18R
WILLOW GROVE   NOT AVBL
NORTH PHILA    CLOUDY    75  64  68 E12       30.19R
PHILADELPHIA   MOCLDY    76  66  71 E12       30.16R
$$


USA.gov is the U.S. government's official web portal to all federal, state and local government web resources and services.